Regional Weather Roundup
Issued by NWS

Home | Current Version | Previous Version | Text Only | Print | Product List | Glossary Off
Versions: 1 2 3 4 5 6 7 8 9 10 11 12 13 14 15 16 17 18 19 20 21 22 23 24 25 26 27 28

000
ASUS45 KCYS 292010
RWRWY

WYOMING REGIONAL WEATHER ROUNDUP
NATIONAL WEATHER SERVICE CHEYENNE WY
200 PM MDT WED OCT 29 2014

NOTE:  "FAIR" INDICATES FEW OR NO CLOUDS BELOW 12,000 FEET
WITH NO SIGNIFICANT WEATHER AND/OR OBSTRUCTIONS TO VISIBILITY.

WYZ001-292100-
YELLOWSTONE NATIONAL PARK

CITY           SKY/WX    TMP DP  RH WIND       PRES   REMARKS
LK YELLOWSTONE   N/A     38  22  52 VRB3      30.27
W YELLOWSTONE  NOT AVBL

$$
WYZ002>013-054>058-071-098>099-292100-
NORTHERN WYOMING

CITY           SKY/WX    TMP DP  RH WIND       PRES   REMARKS
JACKSON        CLOUDY    48  27  43 SW8       30.25F
CODY           MOSUNNY   57  25  28 W20G30    30.11
GREYBULL       SUNNY     58  21  24 SE8       30.08F
WORLAND        SUNNY     58  20  22 W3        30.09F
SHERIDAN       SUNNY     66  20  17 NW26G35   30.00F
BUFFALO        MOSUNNY   61  22  22 VRB3      30.05F
GILLETTE       CLOUDY    56  30  37 CALM      30.02F
HULETT         CLOUDY    54  32  43 CALM      30.03
NEWCASTLE      FAIR      54  21  28 N15G24    30.02F

$$
WYZ014>020-022>026-101>103-292100-
CENTRAL WYOMING

CITY           SKY/WX    TMP DP  RH WIND       PRES   REMARKS
BIG PINEY      PTSUNNY   56  26  31 NW13      30.27F
PINEDALE       CLOUDY    46  23  39 N3        30.27F
DUBOIS         FAIR      50  25  37 W26G36    30.19F HAZE
LANDER         SUNNY     63  23  21 W18G28    30.12S
RIVERTON       SUNNY     61  24  24 W8        30.14R
CASPER         SUNNY     62  20  19 W24G41    30.08F
DOUGLAS        SUNNY     64  18  17 W30G39    30.05S

$$
WYZ021-027>030-104>119-292100-
SOUTHERN WYOMING

CITY           SKY/WX    TMP DP  RH WIND       PRES   REMARKS
EVANSTON       MOSUNNY   55  25  31 W13G25    30.31F
KEMMERER       CLEAR     52  23  32 W21       30.30S
FORT BRIDGER   FAIR      60  26  27 W18G30    30.32F
ROCK SPRINGS   SUNNY     55  20  25 W23       30.26F
DIXON          FAIR      59  19  21 SW16G23   30.29F
RAWLINS        CLOUDY    53  15  22 SW18G29   30.22F
SARATOGA       MOCLDY    52  19  28 W18G28    30.25S
LARAMIE        SUNNY     57  18  21 W29G38    30.17F
CHEYENNE       SUNNY     64  17  16 W20G28    30.12F
TORRINGTON     SUNNY     69  14  12 W24G35    29.99F
PINE BLUFFS    FAIR      68  18  14 W25G32    30.07F

$$



USA.gov is the U.S. government's official web portal to all federal, state and local government web resources and services.